Location: Unspecified
(40.7945°N, 111.1337°W)
Time: 08:52:06
(UTC-06:00)

Vanguard 1 - Pass Details

Date: 20 June 2019
Orbit: 655 x 3829 km, 34.2° (Epoch: 19 August)

Event Time Altitude Azimuth Distance (km) Brightness Sun altitude
Exits shadow 03:26:35 24° 202° (SSW) 4,925 13.0 -19.9°
Maximum altitude 03:36:01 39° 157° (SSE) 3,402 12.5 -19.0°
Drops below altitude 10° 03:46:25 10° 93° (E) 4,063 13.6 -18.0°
Sets 03:49:16 0° 85° (E) 4,705 14.1 -17.7°
